Cherry Point, NC

5:46 PM EDT on April 24, 2017 (GMT -0400)
Cherry Point Marine Corps Air Station

Weather History for KNKT - February, 2013

Change the Weather History Date:

Friday, February 8, 2013

  Actual Average Record
Temperature  
Mean Temperature 52 °F -  
Max Temperature 57 °F 54 °F 73 °F (2009)
Min Temperature 46 °F 35 °F 25 °F (2006)
Degree Days  
Heating Degree Days 14    
Growing Degree Days 2 (Base 50)    
Moisture  
Dew Point 46 °F    
Average Humidity 82    
Maximum Humidity 100    
Minimum Humidity 56    
Precipitation  
Precipitation 2.05 in - - ()
Sea Level Pressure  
Sea Level Pressure 29.73 in    
Wind  
Wind Speed 14 mph ()    
Max Wind Speed 25 mph    
Max Gust Speed 36 mph    
Visibility 6.6 miles    
Events Rain    
Averages and records for this station are not official NWS values.
T = Trace of Precipitation, MM = Missing Value Source: Averaged Metar Reports

Daily Weather History Graph

Daily Weather History Graph

Search for Another Location

Airport or City:

Trip Planner

Search our weather history database for the weather conditions in past years. The results will help you decide how hot, cold, wet, or windy it might be!

Date:

Astronomy

Feb. 08, 2013 Rise Set
Actual Time 7:00 AM EST 5:43 PM EST
Civil Twilight 6:33 AM EST 6:09 PM EST
Nautical Twilight 6:04 AM EST 6:39 PM EST
Astronomical Twilight 5:34 AM EST 7:09 PM EST
Moon 5:25 AM EST (2/8) 4:15 PM EST (2/8)
Length of Visible Light 11h 36m
Length of Day
10h 43m
Waning Crescent, 3% of the Moon is Illuminated
Feb 8
Waning Crescent
Feb 10
New
Feb 17
First Quarter
Feb 25
Full
Mar 4
Last Quarter

Hourly Weather History & Observations

Time (EST) Temp. Windchill Dew Point Humidity Pressure Visibility Wind Dir Wind Speed Gust Speed Precip Events Conditions
12:54 AM 52.0 °F - 50.0 °F 93% 29.85 in 1.8 mi ENE 9.2 mph - 0.13 in Rain Heavy Rain
1:32 AM 51.8 °F - 50.0 °F 94% 29.78 in 2.0 mi NE 17.3 mph 31.1 mph 0.11 in Rain Heavy Rain
1:54 AM 52.0 °F - 50.0 °F 93% 29.74 in 2.5 mi NE 20.7 mph 27.6 mph 0.18 in Rain Rain
2:40 AM 53.6 °F - 51.8 °F 94% 29.68 in 2.5 mi NE 15.0 mph - 0.17 in Rain Rain
2:54 AM 55.0 °F - 53.1 °F 93% 29.64 in 2.5 mi ENE 15.0 mph - 0.22 in Rain Heavy Rain
3:54 AM 55.9 °F - 55.0 °F 97% 29.55 in 2.5 mi NNE 10.4 mph - 0.25 in Rain Light Rain
4:20 AM 57.2 °F - 55.4 °F 94% 29.53 in 2.5 mi NNE 6.9 mph - 0.11 in Rain Light Rain
4:54 AM 55.9 °F - 54.0 °F 93% 29.50 in 2.5 mi NNE 17.3 mph - 0.25 in   Overcast
5:14 AM 53.6 °F - 53.6 °F 100% 29.49 in 1.8 mi NE 13.8 mph - 0.08 in Rain Rain
5:24 AM 55.4 °F - 53.6 °F 94% 29.49 in 2.5 mi NE 9.2 mph - 0.12 in Rain Light Rain
5:51 AM 53.6 °F - 51.8 °F 94% 29.52 in 2.5 mi NNW 23.0 mph 28.8 mph 0.23 in   Overcast
5:54 AM 53.1 °F - 51.1 °F 93% 29.50 in 2.5 mi NNW 21.9 mph 31.1 mph 0.24 in   Overcast
6:54 AM 48.0 °F - 45.0 °F 89% 29.57 in 2.5 mi NW 20.7 mph 28.8 mph 0.17 in Rain Light Rain
7:51 AM 46.4 °F 38.3 °F 44.6 °F 93% 29.64 in 2.5 mi NW 23.0 mph 28.8 mph 0.13 in   Overcast
7:54 AM 46.9 °F - 44.1 °F 90% 29.63 in 2.5 mi NW 20.7 mph 28.8 mph 0.14 in   Overcast
8:54 AM 48.0 °F - 43.0 °F 83% 29.68 in 2.5 mi NW 21.9 mph 35.7 mph 0.10 in   Overcast
9:09 AM 48.2 °F - 44.6 °F 87% 29.69 in 8.0 mi NW 25.3 mph 32.2 mph 0.03 in   Overcast
9:47 AM 51.8 °F - 46.4 °F 82% 29.70 in 10.0 mi NNW 19.6 mph 34.5 mph 0.08 in   Mostly Cloudy
9:54 AM 52.0 °F - 46.0 °F 80% 29.70 in 10.0 mi NNW 23.0 mph 32.2 mph 0.08 in   Mostly Cloudy
10:54 AM 54.0 °F - 46.0 °F 75% 29.75 in 10.0 mi NNW 20.7 mph 26.5 mph 0.07 in   Partly Cloudy
11:23 AM 55.4 °F - 46.4 °F 72% 29.76 in 10.0 mi NW 17.3 mph 26.5 mph 0.03 in   Mostly Cloudy
11:54 AM 54.0 °F - 45.0 °F 72% 29.78 in 10.0 mi WNW 19.6 mph 29.9 mph 0.06 in   Mostly Cloudy
12:54 PM 51.1 °F - 43.0 °F 74% 29.80 in 10.0 mi WNW 18.4 mph 25.3 mph 0.05 in   Overcast
1:54 PM 50.0 °F - 42.1 °F 74% 29.80 in 10.0 mi WNW 12.7 mph 24.2 mph 0.05 in   Mostly Cloudy
2:32 PM 51.8 °F - 42.8 °F 71% 29.82 in 10.0 mi WNW 11.5 mph 19.6 mph 0.02 in   Overcast
2:54 PM 51.1 °F - 43.0 °F 74% 29.81 in 10.0 mi WNW 11.5 mph - N/A   Mostly Cloudy
3:49 PM 51.8 °F - 42.8 °F 71% 29.82 in 10.0 mi West 19.6 mph 23.0 mph N/A   Scattered Clouds
3:54 PM 52.0 °F - 43.0 °F 71% 29.82 in 10.0 mi West 15.0 mph 23.0 mph N/A   Scattered Clouds
4:54 PM 53.1 °F - 43.0 °F 69% 29.82 in 10.0 mi West 12.7 mph - N/A   Clear
5:54 PM 51.1 °F - 42.1 °F 71% 29.85 in 10.0 mi West 13.8 mph - 0.03 in   Scattered Clouds
6:54 PM 50.0 °F - 43.0 °F 77% 29.87 in 10.0 mi West 11.5 mph - N/A   Partly Cloudy
7:54 PM 50.0 °F - 43.0 °F 77% 29.89 in 10.0 mi West 9.2 mph - 0.02 in   Scattered Clouds
8:54 PM 50.0 °F - 43.0 °F 77% 29.91 in 10.0 mi West 9.2 mph - 0.01 in   Clear
9:54 PM 50.0 °F - 43.0 °F 77% 29.92 in 10.0 mi West 9.2 mph - N/A   Clear
10:54 PM 50.0 °F - 41.0 °F 71% 29.95 in 10.0 mi NW 13.8 mph - N/A   Clear
11:54 PM 46.9 °F - 32.0 °F 56% 29.99 in 10.0 mi NW 16.1 mph 31.1 mph N/A   Clear